Regional Weather Roundup
Issued by NWS

Home | Current Version | Previous Version | Text Only | Print | Product List | Glossary On
Versions: 1 2 3 4 5 6 7 8 9 10 11 12 13 14 15 16 17 18 19 20 21 22 23 24 25 26 27 28 29 30 31 32 33 34 35 36 37 38 39 40 41 42 43 44 45 46 47 48 49 50
000
ASCA44 KEWX 041720
RWRMX

LATIN AMERICA AND CARIBBEAN REGIONAL WEATHER ROUNDUP
NATIONAL WEATHER SERVICE AUSTIN/SAN ANTONIO TX
1200 PM CDT FRI SEP 04 2015

NOTE: "FAIR" INDICATED FEW OR NO CLOUDS BELOW 12,000 FEET WITH NO
SIGNIFICANT WEATHER AND/OR OBSTRUCTIONS TO VISIBILITY.

BAJA CALIFORNIA

CITY           SKY/WX    TMP DP  RH WIND       PRES   REMARKS
LORETO         MOSUNNY   90  77  66 NE6       29.80R HX 102
LA PAZ         MOSUNNY   90  64  43 S3        29.84S HX  91
MEXICALI       SUNNY     88  68  51 E6        29.77R HX  91
S.J. DEL CABO  MOSUNNY   90  68  48 E6        29.85R HX  93
TIJUANA        MOSUNNY   72  52  49 W5        29.93S

NORTHWESTERN MEXICO

CITY           SKY/WX    TMP DP  RH WIND       PRES   REMARKS
CULIACAN       MOSUNNY   90  81  74 CALM      29.84R HX 108
DURANGO        SUNNY     77  54  44 CALM      30.21S
GUAYMAS        MOSUNNY   90  75  62 CALM      29.79R HX 100
HERMOSILLO     CLOUDY    86  70  58 N6        29.90R HX  90
CD. JUAREZ     CLOUDY    82  55  39 NW12      29.98F
LOS MOCHIS     MOSUNNY   90  72  55 CALM      29.82S HX  96
OBREGON        PTSUNNY   88  68  51 CALM      29.81R HX  91

NORTHEASTERN MEXICO

CITY           SKY/WX    TMP DP  RH WIND       PRES   REMARKS
CHIHUAHUA      MOSUNNY   81  50  34 N6        30.10S
MATAMOROS      PTSUNNY   91  79  66 SE14      29.92S HX 107
MONCLOVA       MOSUNNY   88  66  48 CALM      29.92R HX  90
MONTERREY      PTSUNNY   82  68  61 E10       29.93S
NUEVO LAREDO   MOSUNNY   91  75  59 CALM      29.90S HX 102
PIEDRAS NEGRAS MOSUNNY   90  73  58 SE6       29.94S HX  98
REYNOSA        PTSUNNY   88  72  58 S14       29.90S HX  94
SALTILLO       MOSUNNY   84  68  58 N6        30.11S
TORREON        PTSUNNY   86  57  37 E12       30.05S
CD. VICTORIA   MOSUNNY   90  68  48 S17       29.91S HX  93

WESTERN MEXICO

CITY           SKY/WX    TMP DP  RH WIND       PRES   REMARKS
AGUASCALIENTES PTSUNNY   72  55  56 S7        30.25R
COLIMA         CLOUDY    75  73  94 CALM      30.02S FOG
DEL BAJIO      MOSUNNY   73  59  60 SE10      30.27F
GUADALAJARA    CLOUDY    70  61  73 CALM      30.18R
MANZANILLO     PTSUNNY   84  77  79 SE16      29.83R HX  94
MAZATLAN       MOSUNNY   84  75  74 SE7       29.82S HX  92
P. VALLARTA    PTSUNNY   88  77  70 S5        29.84F HX 100
URUAPAN        RAIN      66  64  94 CALM      30.19R FOG
ZACATECAS      MOSUNNY   72  52  49 SW17      30.26R

CENTRAL MEXICO

CITY           SKY/WX    TMP DP  RH WIND       PRES   REMARKS
CUERNAVACA     PTSUNNY   72  63  73 CALM      30.16F
MEXICO CITY    MOSUNNY   68  52  56 NW7       30.31F
MORELIA        PTSUNNY   72  57  60 W3        30.22F
POZA RICA      PTSUNNY   90  77  66 CALM      29.91F HX 102
PUEBLA         MOSUNNY   68  54  60 S8        30.33S
QUERETARO      PTSUNNY   72  57  60 E9        30.29S
S. LUIS POTOSI MOSUNNY   73  52  46 SE8       30.22S
TAMPICO        MOSUNNY   90  75  62 SE13      29.91F HX 100
TOLUCA         PTSUNNY   64  50  59 E3        30.38F

SOUTHERN MEXICO

CITY           SKY/WX    TMP DP  RH WIND       PRES   REMARKS
ACAPULCO       MOSUNNY   88  73  62 SE6       29.88S HX  96
B. DE HUATULCO CLOUDY    79  73  83 E9        30.00R
OAXACA         PTSUNNY   73  59  60 S3        30.21F
P. ESCONDIDO   CLOUDY    84  73  70 SE12      30.00  HX  91
VERACRUZ       MOSUNNY   88  77  70 E3        29.90S HX 100
ZIHUATANEJO    CLOUDY    82  75  78 N2        29.91R

YUCATAN PENINSULA

CITY           SKY/WX    TMP DP  RH WIND       PRES   REMARKS
CAMPECHE       MOSUNNY   88  77  70 E12       29.91S HX 100
CANCUN         MOSUNNY   90  77  66 SE10        N/A  HX 102
CHETUMAL       MOSUNNY   90  79  70 E5        29.94S HX 105
CD. DEL CARMEN MOSUNNY   88  77  70 SE9       29.91S HX 100
COZUMEL        MOSUNNY   84  77  79 E8        29.97S HX  94
MERIDA         PTSUNNY   90  77  66 NE5       29.95F HX 102
MINATITLAN     MOSUNNY   86  72  62 CALM      29.85F HX  92
TAPACHULA      PTSUNNY   88  75  66 CALM      29.93S HX  97
TUX. GUTIERREZ MOSUNNY   81  68  65 SE3       29.98F
VILLAHERMOSA   PTSUNNY   88  73  62 W8        29.91F HX  96

CENTRAL AMERICA

CITY           SKY/WX    TMP DP  RH WIND       PRES   REMARKS
BELIZE CITY    MOSUNNY   91  79  66 E8        29.93S HX 107
MANAGUA        MOSUNNY   90  73  58 E12       29.86F HX  98

CARIBBEAN

CITY           SKY/WX    TMP DP  RH WIND       PRES   REMARKS
ARUBA          MOSUNNY   91  75  59 E20       29.86F HX 102
CURACAO        MOSUNNY   90  75  62 E15       29.92F HX 100
KINGSTON       MOSUNNY   88  77  70 SE25      29.94S HX 100
NASSAU         PTSUNNY   88  77  70 N3        29.99F HX 100
SAN JUAN       MOSUNNY   90  75  62 NE15      29.97F HX 100
SANTO DOMINGO  MOSUNNY   88  75  66 S8        29.94F HX  97
ST. CROIX      MOSUNNY   88  75  66 SE13      29.99F HX  97
ST. KITTS      MOSUNNY   86  79  79 E9        29.97S HX  99
ST. MAARTEN    LGT RAIN  81  77  89 SW5       29.97S
ST. THOMAS     LGT RAIN  84  79  84 N9        29.98  HX  96

$$




USA.gov is the U.S. government's official web portal to all federal, state and local government web resources and services.